Tracking 22881 objects as of 19-Apr-2021
HD Live streaming from Space Station
objects crossing your sky now

STARLINK-1156

Track STARLINK-1156 now!
10-day predictions
STARLINK-1156 is classified as:


NORAD ID: 45054
Int'l Code: 2020-006L
Perigee: 553.3 km
Apogee: 555.4 km
Inclination: 53.1 °
Period: 95.6 minutes
Semi major axis: 6925 km
RCS: Unknown
Launch date: January 29, 2020
Source: United States (US)
Launch site: AIR FORCE EASTERN TEST RANGE (AFETR)
aabbcc
Your satellite tracking list
Your tracking list is empty




NASA's NSSDC Master Catalog

Two Line Element Set (TLE):
1 45054U 20006L   21108.93922884  .00000095  00000-0  25255-4 0  9990
2 45054  53.0571  23.1478 0001531  78.5419 281.5741 15.06405003 67308
Source of the keplerian elements: AFSPC